{"data":{"norad_id":61511,"epoch":"2026-05-25T00:16:13.666656Z","epoch_age_seconds":74805,"freshness":"FRESH","line1":"1 61511U 24183C   26145.01126929  .00000378  00000+0  23939-4 0  9997","line2":"2 61511  53.1594 147.5218 0001035  71.3279 288.7835 15.31705707 91343","mean_motion":15.31705707,"eccentricity":0.0001035,"inclination_deg":53.1594,"raan_deg":147.5218,"arg_perigee_deg":71.3279,"mean_anomaly_deg":288.7835,"bstar":2.3939e-5,"rev_number":9134,"period_min":94.012837676265,"perigee_km":470.0141260002,"apogee_km":471.43184001668,"semimajor_km":6848.8599830084,"source":"CELESTRAK","updated_at":"2026-05-25T13:38:19.368628Z"}}